Regional Weather Roundup
Issued by NWS

Home | Current Version | Previous Version | Text Only | Print | Product List | Glossary Off
Versions: 1 2 3 4 5 6 7 8 9 10 11 12 13 14 15 16 17 18 19 20 21 22 23 24 25 26 27 28 29 30 31 32 33 34 35 36 37 38 39 40 41 42 43 44 45 46 47 48 49 50

000
ASUS43 KFSD 190010
RWRSD

WEATHER ROUNDUP FOR SOUTH DAKOTA
NATIONAL WEATHER SERVICE SIOUX FALLS SD
600 PM CST THU DEC 18 2014

NOTE: "FAIR" INDICATES FEW OR NO CLOUDS BELOW 12,000 FEET WITH NO
SIGNIFICANT WEATHER AND/OR OBSTRUCTIONS TO VISIBILITY.


SDZ001>005-009-010-012>017-190100-
NORTHWEST AND NORTH CENTRAL SOUTH DAKOTA

CITY           SKY/WX    TMP DP  RH WIND       PRES   REMARKS
BUFFALO          N/A     34  25  69 SW12      29.90R WCI  25
FAITH            N/A     26  22  84 S12       30.00R WCI  16
MOBRIDGE       CLOUDY    29  25  85 S10       30.02S WCI  20
$$

SDZ012>016-024>037-041>051-057-063-072>074-190100-
SOUTHWEST AND SOUTH CENTRAL SOUTH DAKOTA

CITY           SKY/WX    TMP DP  RH WIND       PRES   REMARKS
RAPID CTY ARPT CLEAR     31  25  78 NE6       29.99R WCI  25
PIERRE         CLOUDY    28  24  85 S6        30.06S WCI  22
CUSTER         CLEAR     29  18  63 W5        29.97R WCI  24
ELLSWORTH AFB  CLEAR     33  27  77 CALM      29.99R
PHILIP         CLEAR     25  20  81 CALM      30.04R
PINE RIDGE     CLEAR     26  20  77 SW6       30.02R WCI  19
SPEARFISH      FAIR      32  21  64 W5        29.99R WCI  27
WINNER         CLOUDY    28  23  81 S6        30.08S WCI  22
$$

SDZ004>011-016>023-039-040-190100-
NORTHEAST SOUTH DAKOTA

CITY           SKY/WX    TMP DP  RH WIND       PRES   REMARKS
ABERDEEN       CLOUDY    25  21  85 S9        30.13S WCI  15
WATERTOWN      CLOUDY    24  20  84 S10       30.12F WCI  14
SISSETON         N/A     20  17  88 S10       30.17S WCI   9
$$

SDZ017-020-022-023-036>040-048>070-190100-
SOUTHEAST SOUTH DAKOTA

CITY           SKY/WX    TMP DP  RH WIND       PRES   REMARKS
SIOUX FALLS    CLOUDY    27  22  81 S7        30.17F WCI  19
HURON          CLOUDY    26  22  84 S9        30.14S WCI  17
CHAMBERLAIN    CLOUDY    27  25  91 SE6       30.10S WCI  20
MITCHELL       CLOUDY    28  24  85 S7        30.16S WCI  21
YANKTON        MOCLDY    28  23  80 SE3       30.18S
$$

ABBREVIATIONS USED IN REMARKS
   TC - TEMPERATURE IN CELSIUS
  WCI - WIND CHILL INDEX
   HX - HEAT INDEX
  VSB - VISIBILITY




USA.gov is the U.S. government's official web portal to all federal, state and local government web resources and services.